Middleton, WI

6:26 AM CST on January 23, 2018 (GMT -0600)
Middleton

Weather History for KC29 - January, 2013

Change the Weather History Date:

Wednesday, January 16, 2013

  Actual Average (KMSN) Record (KMSN)
Temperature  
Mean Temperature 28 °F -  
Max Temperature 36 °F 26 °F 52 °F (1933)
Min Temperature 20 °F 7 °F -28 °F (1979)
Degree Days  
Heating Degree Days 37    
Moisture  
Dew Point 19 °F    
Average Humidity 67    
Maximum Humidity 87    
Minimum Humidity 54    
Precipitation  
Precipitation 0.00 in - - ()
Sea Level Pressure  
Sea Level Pressure 29.88 in    
Wind  
Wind Speed 11 mph (WSW)    
Max Wind Speed 20 mph    
Max Gust Speed 29 mph    
Visibility 10 miles    
Events      
Averages and records for this station are not official NWS values.
T = Trace of Precipitation, MM = Missing Value Source: NWS Daily Summary

Daily Weather History Graph

Daily Weather History Graph

Search for Another Location

Airport or City:

Trip Planner

Search our weather history database for the weather conditions in past years. The results will help you decide how hot, cold, wet, or windy it might be!

Date:

Astronomy

Jan. 16, 2013 Rise Set
Actual Time 7:26 AM CST 4:50 PM CST
Civil Twilight 6:54 AM CST 5:21 PM CST
Nautical Twilight 6:19 AM CST 5:56 PM CST
Astronomical Twilight 5:45 AM CST 6:30 PM CST
Moon 9:52 AM CST (1/16) 10:52 PM CST (1/16)
Length of Visible Light 10h 26m
Length of Day
9h 23m
Waxing Crescent, 28% of the Moon is Illuminated
Jan 16
Waxing Crescent
Jan 18
First Quarter
Jan 26
Full
Feb 3
Last Quarter
Feb 10
New

Hourly Weather History & Observations

Time (CST) Temp. Windchill Dew Point Humidity Pressure Visibility Wind Dir Wind Speed Gust Speed Precip Events Conditions
12:15 AM 20.5 °F 10.0 °F 11.3 °F 68% 30.03 in 10.0 mi SSW 9.2 mph - N/A   Clear
12:55 AM 20.5 °F 10.0 °F 10.8 °F 66% 30.02 in 10.0 mi SSW 9.2 mph - N/A   Clear
1:55 AM 21.4 °F 9.1 °F 9.9 °F 61% 29.99 in 10.0 mi SW 12.7 mph - N/A   Clear
2:15 AM 21.2 °F 8.9 °F 9.5 °F 61% 29.98 in 10.0 mi SW 12.7 mph - N/A   Clear
2:35 AM 21.0 °F 8.1 °F 9.5 °F 61% 29.97 in 10.0 mi SW 13.8 mph 19.6 mph N/A   Clear
2:55 AM 21.0 °F 9.3 °F 9.3 °F 61% 29.97 in 10.0 mi SW 11.5 mph - N/A   Clear
3:15 AM 21.2 °F 8.3 °F 9.0 °F 59% 29.96 in 10.0 mi SW 13.8 mph 17.3 mph N/A   Clear
3:35 AM 21.0 °F 9.3 °F 9.0 °F 60% 29.95 in 10.0 mi SSW 11.5 mph - N/A   Clear
4:15 AM 20.3 °F 8.3 °F 9.0 °F 62% 29.91 in 10.0 mi SW 11.5 mph - N/A   Clear
4:35 AM 20.5 °F 8.6 °F 8.8 °F 61% 29.90 in 10.0 mi SW 11.5 mph - N/A   Clear
4:55 AM 20.7 °F 9.5 °F 8.8 °F 60% 29.90 in 10.0 mi SW 10.4 mph - N/A   Clear
5:15 AM 20.7 °F 8.8 °F 8.8 °F 60% 29.88 in 10.0 mi SSW 11.5 mph 17.3 mph N/A   Clear
5:35 AM 20.7 °F 8.8 °F 9.0 °F 61% 29.86 in 10.0 mi SSW 11.5 mph - N/A   Clear
5:55 AM 20.5 °F 9.2 °F 9.1 °F 62% 29.85 in 10.0 mi SSW 10.4 mph - N/A   Clear
6:15 AM 20.5 °F 9.2 °F 9.1 °F 62% 29.85 in 10.0 mi SSW 10.4 mph - N/A   Clear
6:35 AM 20.8 °F 8.4 °F 9.5 °F 62% 29.85 in 10.0 mi SW 12.7 mph 18.4 mph N/A   Clear
6:55 AM 21.2 °F 8.3 °F 9.5 °F 61% 29.84 in 10.0 mi SSW 13.8 mph 17.3 mph N/A   Scattered Clouds
7:15 AM 21.9 °F 7.8 °F 10.4 °F 61% 29.83 in 10.0 mi SW 17.3 mph 20.7 mph N/A   Mostly Cloudy
7:35 AM 22.6 °F 11.3 °F 11.1 °F 61% 29.84 in 10.0 mi SW 11.5 mph 17.3 mph N/A   Mostly Cloudy
7:55 AM 23.4 °F 11.1 °F 12.0 °F 62% 29.83 in 10.0 mi SW 13.8 mph 20.7 mph N/A   Overcast
8:15 AM 23.9 °F 9.9 °F 12.7 °F 62% 29.81 in 10.0 mi SW 18.4 mph 23.0 mph N/A   Mostly Cloudy
8:35 AM 24.8 °F 11.9 °F 13.1 °F 61% 29.81 in 10.0 mi SW 16.1 mph 23.0 mph N/A   Overcast
8:55 AM 25.3 °F 14.1 °F 13.8 °F 62% 29.81 in 10.0 mi SW 12.7 mph 19.6 mph N/A   Overcast
9:15 AM 26.6 °F 15.2 °F 14.4 °F 60% 29.79 in 10.0 mi SW 13.8 mph 24.2 mph N/A   Overcast
9:35 AM 28.2 °F 17.2 °F 14.5 °F 57% 29.78 in 10.0 mi SW 13.8 mph 21.9 mph N/A   Overcast
9:55 AM 29.8 °F 18.4 °F 15.1 °F 54% 29.77 in 10.0 mi SW 16.1 mph 24.2 mph N/A   Overcast
10:15 AM 30.2 °F 18.9 °F 15.4 °F 54% 29.77 in 10.0 mi WSW 16.1 mph 26.5 mph N/A   Overcast
10:35 AM 31.1 °F 18.9 °F 16.5 °F 55% 29.76 in 10.0 mi WSW 19.6 mph 27.6 mph N/A   Overcast
10:55 AM 30.7 °F 18.8 °F 18.0 °F 59% 29.77 in 10.0 mi WSW 18.4 mph 28.8 mph N/A   Overcast
11:15 AM 32.2 °F 20.7 °F 19.4 °F 59% 29.76 in 10.0 mi West 18.4 mph 25.3 mph N/A   Overcast
11:35 AM 31.8 °F 19.9 °F 19.6 °F 61% 29.76 in 10.0 mi West 19.6 mph 24.2 mph N/A   Overcast
11:55 AM 32.0 °F 21.2 °F 21.2 °F 64% 29.75 in 10.0 mi WSW 16.1 mph 20.7 mph N/A   Overcast
12:15 PM 32.0 °F 20.5 °F 22.5 °F 68% 29.75 in 10.0 mi West 18.4 mph 21.9 mph N/A   Overcast
12:35 PM 32.9 °F 22.8 °F 23.4 °F 68% 29.76 in 10.0 mi West 15.0 mph 19.6 mph N/A   Overcast
12:55 PM 32.2 °F 21.4 °F 24.1 °F 72% 29.76 in 10.0 mi WSW 16.1 mph 20.7 mph N/A   Overcast
1:15 PM 34.3 °F 25.0 °F 24.4 °F 67% 29.76 in 10.0 mi WSW 13.8 mph - N/A   Overcast
1:55 PM 32.9 °F 23.2 °F 24.4 °F 71% 29.77 in 10.0 mi West 13.8 mph 21.9 mph N/A   Overcast
2:15 PM 33.1 °F 25.5 °F 25.0 °F 72% 29.78 in 7.0 mi West 9.2 mph - N/A   Overcast
2:55 PM 33.4 °F 24.8 °F 25.2 °F 72% 29.79 in 10.0 mi West 11.5 mph - N/A   Overcast
3:15 PM 33.4 °F 25.4 °F 25.5 °F 73% 29.80 in 10.0 mi West 10.4 mph - N/A   Overcast
3:35 PM 33.8 °F 25.8 °F 25.9 °F 73% 29.81 in 10.0 mi West 10.4 mph - N/A   Overcast
3:55 PM 34.7 °F 28.1 °F 26.4 °F 72% 29.83 in 10.0 mi West 8.1 mph - N/A   Overcast
4:15 PM 34.2 °F 26.2 °F 26.6 °F 74% 29.84 in 10.0 mi West 10.4 mph - N/A   Overcast
4:35 PM 34.2 °F 27.5 °F 26.8 °F 74% 29.85 in 10.0 mi West 8.1 mph - N/A   Overcast
4:55 PM 34.3 °F 29.2 °F 27.1 °F 75% 29.86 in 10.0 mi West 5.8 mph - N/A   Overcast
5:35 PM 34.0 °F 28.8 °F 27.5 °F 77% 29.88 in 10.0 mi West 5.8 mph - N/A   Overcast
5:55 PM 34.2 °F 30.0 °F 27.9 °F 78% 29.89 in 10.0 mi West 4.6 mph - N/A   Overcast
6:15 PM 34.2 °F - 27.9 °F 78% 29.90 in 10.0 mi Calm Calm - N/A   Overcast
6:35 PM 34.3 °F - 28.0 °F 78% 29.91 in 10.0 mi Calm Calm - N/A   Overcast
6:55 PM 34.2 °F - 27.9 °F 78% 29.92 in 10.0 mi Calm Calm - N/A   Overcast
7:15 PM 33.3 °F - 28.2 °F 82% 29.93 in 10.0 mi Calm Calm - N/A   Overcast
7:35 PM 33.4 °F - 28.2 °F 81% 29.94 in 10.0 mi Calm Calm - N/A   Overcast
7:55 PM 32.5 °F 27.1 °F 28.9 °F 87% 29.95 in 10.0 mi West 5.8 mph - N/A   Overcast
8:15 PM 35.1 °F 28.6 °F 29.3 °F 80% 29.95 in 10.0 mi WNW 8.1 mph - N/A   Overcast
8:35 PM 36.0 °F 28.5 °F 29.3 °F 77% 29.97 in 10.0 mi WNW 10.4 mph - N/A   Overcast
8:55 PM 35.4 °F 28.4 °F 28.8 °F 77% 29.98 in 10.0 mi NW 9.2 mph - N/A   Overcast
9:15 PM 33.8 °F 27.7 °F 28.6 °F 81% 30.00 in 10.0 mi NW 6.9 mph - N/A   Overcast
9:55 PM 34.2 °F 25.7 °F 28.4 °F 79% 30.02 in 10.0 mi NNW 11.5 mph - N/A   Overcast
10:15 PM 32.9 °F 24.1 °F 21.4 °F 63% 30.02 in 10.0 mi North 11.5 mph - N/A   Mostly Cloudy
10:35 PM 31.8 °F 22.3 °F 22.8 °F 69% 30.03 in 10.0 mi NNW 12.7 mph - N/A   Scattered Clouds
10:55 PM 30.7 °F 22.0 °F 23.0 °F 73% 30.04 in 10.0 mi NNW 10.4 mph - N/A   Scattered Clouds
11:15 PM 30.6 °F 20.7 °F 20.5 °F 66% 30.05 in 10.0 mi NNW 12.7 mph - N/A   Clear
11:35 PM 29.5 °F 18.8 °F 18.1 °F 63% 30.05 in 10.0 mi NNW 13.8 mph - N/A   Clear
11:55 PM 28.4 °F 18.5 °F 17.6 °F 64% 30.05 in 10.0 mi NNW 11.5 mph - N/A   Clear